FW3054 Weather Reports


time (UTC)temp
C
wind
direction
speed
KPH
gust
KPH
rain 1hr
cm
rain 24hr
cm
rain mn
cm
humidity
%
barometer
mb
20260509000521 16 135 1.6 3.2 0.00 0.00 0.00 69 1013.7
20260508235521 16 203 1.6 4.8 0.00 0.00 0.00 69 1013.7
20260508234546 16 135 1.6 6.4 0.00 0.00 0.00 68 1013.7
20260508233546 16 135 1.6 4.8 0.00 0.00 0.00 67 1013.8
20260508232521 16 135 1.6 3.2 0.00 0.00 0.00 66 1013.8
20260508231521 16 135 3.2 4.8 0.00 0.00 0.00 64 1013.6
20260508230521 17 113 1.6 4.8 0.00 0.00 0.00 65 1013.6
20260508225521 17 158 1.6 3.2 0.00 0.00 0.00 63 1013.8
20260508224521 17 113 3.2 6.4 0.00 0.00 0.00 62 1013.6
20260508223521 17 113 3.2 6.4 0.00 0.00 0.00 61 1013.8
20260508222546 18 135 1.6 8.0 0.00 0.00 0.00 60 1013.8
20260508221521 18 135 3.2 6.4 0.00 0.00 0.00 60 1013.9
20260508220521 18 113 1.6 6.4 0.00 0.00 0.00 59 1013.8
20260508215521 18 135 1.6 3.2 0.00 0.00 0.00 59 1013.9
20260508214521 18 135 1.6 4.8 0.00 0.00 0.00 57 1013.9
20260508213521 19 135 1.6 6.4 0.00 0.00 0.00 56 1014.3
20260508212521 19 203 1.6 3.2 0.00 0.00 0.00 56 1014.1
20260508211521 19 135 1.6 4.8 0.00 0.00 0.00 56 1014.0
20260508210520 19 203 1.6 3.2 0.00 0.00 0.00 56 1014.0
20260508205521 19 0.0 1.6 0.00 0.00 0.00 58 1014.0
20260508204521 18 135 1.6 3.2 0.00 0.00 0.00 55 1014.3
20260508203521 19 90 1.6 4.8 0.00 0.00 0.00 55 1014.3
20260508202520 19 0.0 1.6 0.00 0.00 0.00 56 1014.5
20260508201521 19 135 1.6 3.2 0.00 0.00 0.00 56 1014.4
20260508200520 19 135 3.2 4.8 0.00 0.00 0.00 54 1014.6
20260508195520 20 0.0 3.2 0.00 0.00 0.00 55 1015.1
20260508194521 20 203 1.6 3.2 0.00 0.00 0.00 54 1015.4
20260508193520 20 158 1.6 3.2 0.00 0.00 0.00 53 1015.7
20260508192520 20 135 1.6 4.8 0.00 0.00 0.00 52 1015.7
20260508191520 20 45 1.6 8.0 0.00 0.00 0.00 51 1016.1
20260508190520 20 68 1.6 4.8 0.00 0.00 0.00 54 1015.9
20260508185521 20 90 3.2 6.4 0.00 0.00 0.00 51 1016.2
20260508184520 20 135 3.2 6.4 0.00 0.00 0.00 52 1016.2
20260508183520 20 203 1.6 8.0 0.00 0.00 0.00 52 1016.5
20260508182545 20 135 1.6 4.8 0.00 0.00 0.00 52 1016.5
20260508181520 20 113 3.2 6.4 0.00 0.00 0.00 51 1016.9
20260508180520 20 135 1.6 6.4 0.00 0.00 0.00 51 1016.9
20260508175520 20 135 3.2 4.8 0.00 0.00 0.00 51 1016.7
20260508174520 20 270 1.6 6.4 0.00 0.00 0.00 48 1017.1
20260508173520 20 203 1.6 4.8 0.00 0.00 0.00 53 1017.2
20260508172520 19 135 1.6 4.8 0.00 0.00 0.00 52 1017.2
20260508171522 20 113 1.6 4.8 0.00 0.00 0.00 49 1017.3
20260508170548 20 113 1.6 4.8 0.00 0.00 0.00 49 1017.4
20260508165520 20 158 1.6 3.2 0.00 0.00 0.00 55 1017.6
20260508164522 19 68 1.6 4.8 0.00 0.00 0.00 50 1017.8
20260508163520 19 113 1.6 4.8 0.00 0.00 0.00 50 1018.1
20260508162522 19 135 1.6 4.8 0.00 0.00 0.00 49 1018.4
20260508161522 19 135 1.6 4.8 0.00 0.00 0.00 52 1018.5
20260508160522 18 0.0 1.6 0.00 0.00 0.00 51 1018.4
20260508155522 17 0.0 1.6 0.00 0.00 0.00 54 1018.7
20260508154522 17 23 1.6 3.2 0.00 0.00 0.00 56 1018.5
20260508153522 16 23 1.6 3.2 0.00 0.00 0.00 51 1018.6
20260508152522 16 158 1.6 3.2 0.00 0.00 0.00 54 1018.9
20260508151522 16 0.0 1.6 0.00 0.00 0.00 59 1018.8
20260508150522 15 0.0 0.0 0.00 0.00 0.00 59 1018.6
20260508145547 15 0.0 1.6 0.00 0.00 0.00 62 1018.4
20260508144522 14 0.0 4.8 0.00 0.00 0.00 59 1018.6
20260508143522 13 0.0 1.6 0.00 0.00 0.00 66 1018.6
20260508142547 12 0.0 1.6 0.00 0.00 0.00 64 1018.4
20260508141522 12 0.0 1.6 0.00 0.00 0.00 67 1018.4
20260508140522 11 0.0 1.6 0.00 0.00 0.00 72 1018.4
20260508135522 10 0.0 0.0 0.00 0.00 0.00 78 1018.5
20260508134547 10 0.0 0.0 0.00 0.00 0.00 86 1018.6
20260508133522 9 0.0 0.0 0.00 0.00 0.00 90 1018.5
20260508132522 9 0.0 0.0 0.00 0.00 0.00 89 1018.4
20260508131522 8 0.0 0.0 0.00 0.00 0.00 86 1018.5
20260508130522 8 0.0 0.0 0.00 0.00 0.00 85 1018.3
20260508125522 7 0.0 0.0 0.00 0.00 0.00 85 1018.1
20260508124522 7 0.0 0.0 0.00 0.00 0.00 85 1018.2
20260508123547 7 0.0 0.0 0.00 0.00 0.00 85 1018.1
20260508122522 7 0.0 0.0 0.00 0.00 0.00 86 1018.0
20260508121522 6 0.0 0.0 0.00 0.00 0.00 86 1018.0
20260508120522 6 0.0 0.0 0.00 0.00 0.00 86 1017.7
20260508115522 6 0.0 0.0 0.00 0.00 0.00 87 1017.5
20260508114522 6 0.0 0.0 0.00 0.00 0.00 88 1017.2
20260508113522 6 0.0 0.0 0.00 0.00 0.00 89 1017.0
20260508112521 6 0.0 0.0 0.00 0.03 0.00 89 1016.8
20260508111522 6 0.0 0.0 0.00 0.08 0.00 89 1016.4
20260508110522 6 0.0 0.0 0.00 0.15 0.00 90 1016.3
20260508105522 6 0.0 0.0 0.00 0.23 0.00 90 1016.2
20260508104522 6 0.0 0.0 0.00 0.30 0.00 90 1016.0
20260508103522 6 0.0 1.6 0.00 0.36 0.00 90 1016.0
20260508102521 6 0.0 0.0 0.00 0.41 0.00 90 1016.0
20260508101522 6 0.0 0.0 0.00 0.41 0.00 90 1015.8
20260508100521 6 0.0 0.0 0.00 0.41 0.00 90 1015.7
20260508095521 6 0.0 0.0 0.00 0.41 0.00 90 1015.6
20260508094522 7 0.0 0.0 0.00 0.41 0.00 90 1015.6
20260508093522 7 0.0 0.0 0.00 0.41 0.00 90 1015.5
20260508092546 7 0.0 0.0 0.00 0.41 0.00 90 1015.4
20260508091522 7 0.0 0.0 0.00 0.41 0.00 90 1015.8
20260508090521 7 0.0 0.0 0.00 0.41 0.00 90 1015.6
20260508085522 7 0.0 1.6 0.00 0.41 0.00 90 1015.5
20260508084521 7 0.0 0.0 0.00 0.41 0.00 90 1015.5
20260508083521 7 0.0 0.0 0.00 0.41 0.00 90 1015.4
20260508082521 7 0.0 0.0 0.00 0.41 0.00 89 1015.2
20260508081521 7 0.0 0.0 0.00 0.41 0.00 89 1015.5
20260508080521 7 0.0 0.0 0.00 0.41 0.00 88 1015.3
20260508075546 7 0.0 0.0 0.00 0.41 0.00 88 1015.2
20260508074547 7 0.0 0.0 0.00 0.41 0.00 87 1015.3
20260508073521 7 0.0 0.0 0.00 0.41 0.00 87 1015.4
20260508072546 7 0.0 0.0 0.00 0.41 0.00 86 1015.2
20260508071521 7 0.0 1.6 0.00 0.41 0.00 86 1015.1
20260508070521 7 0.0 1.6 0.00 0.41 0.00 86 1015.1
20260508065521 7 0.0 0.0 0.00 0.41 0.00 87 1014.9
20260508064521 7 0.0 0.0 0.00 0.43 0.00 88 1014.9
20260508063521 7 0.0 0.0 0.00 0.43 0.00 88 1014.8
20260508062521 7 0.0 0.0 0.00 0.43 0.00 89 1014.9
20260508061546 7 0.0 0.0 0.00 0.43 0.00 89 1015.1
20260508060546 7 0.0 0.0 0.00 0.43 0.00 89 1015.3
20260508055521 7 0.0 0.0 0.00 0.43 0.00 89 1015.2
20260508054521 8 0.0 0.0 0.00 0.43 0.00 89 1015.3
20260508053611 8 0.0 0.0 0.00 0.43 0.00 89 1015.3
20260508052546 8 0.0 0.0 0.00 0.43 0.00 89 1015.2
20260508051521 8 0.0 0.0 0.00 0.43 0.00 89 1015.1
20260508050521 8 0.0 0.0 0.00 0.46 0.00 89 1015.1
20260508045521 8 0.0 0.0 0.00 0.53 0.00 89 1015.2
20260508044521 8 0.0 1.6 0.00 0.58 0.00 89 1015.0
20260508043521 8 0.0 0.0 0.00 0.64 0.00 89 1015.0
20260508042546 8 0.0 1.6 0.00 0.66 0.00 89 1014.9
20260508041611 8 0.0 1.6 0.00 0.69 0.00 90 1015.0
20260508040521 8 0.0 0.0 0.00 0.71 0.00 90 1014.8
20260508035521 8 0.0 0.0 0.00 0.74 0.71 90 1014.8
20260508034521 8 0.0 0.0 0.00 0.76 0.71 90 1014.9
20260508033546 8 0.0 0.0 0.00 0.79 0.71 90 1015.1
20260508032521 8 0.0 0.0 0.00 0.79 0.71 90 1015.4
20260508031521 8 0.0 0.0 0.00 0.79 0.71 90 1015.4
20260508030521 8 0.0 0.0 0.00 0.79 0.71 90 1015.3
20260508025546 8 0.0 0.0 0.00 0.79 0.71 91 1015.2
20260508024521 8 0.0 0.0 0.00 0.79 0.71 91 1015.1
20260508023521 8 0.0 0.0 0.00 0.79 0.71 91 1015.1
20260508022521 8 0.0 0.0 0.00 0.79 0.71 91 1014.8
20260508021521 9 0.0 0.0 0.00 0.79 0.71 91 1014.5
20260508020521 9 0.0 0.0 0.00 0.79 0.71 91 1014.9
20260508015521 9 0.0 0.0 0.00 0.84 0.71 91 1014.6
20260508014521 9 0.0 0.0 0.00 0.89 0.71 91 1014.4
20260508013521 9 0.0 0.0 0.00 0.89 0.71 90 1014.1
20260508012521 10 0.0 0.0 0.00 0.89 0.71 90 1014.1
20260508011521 10 0.0 0.0 0.00 0.89 0.71 90 1013.9
20260508010521 10 0.0 0.0 0.00 0.89 0.71 90 1013.8
20260508005521 10 0.0 0.0 0.00 0.91 0.71 89 1013.8
20260508004521 10 0.0 0.0 0.00 0.91 0.71 89 1013.8
20260508003521 11 0.0 0.0 0.00 0.91 0.71 88 1013.8
20260508002546 11 0.0 0.0 0.00 0.97 0.71 88 1013.8
20260508001521 11 0.0 0.0 0.00 1.04 0.71 87 1013.7